Location: Chillicothe
(39.7950°N, 93.5520°W)
Time: 05:04:19
(UTC-06:00)

Explorer 11/Cluster Stage 4 - Pass Details

Date: 24 October 2019
Orbit: 467 x 1259 km, 28.8° (Epoch: 14 November)

Event Time Altitude Azimuth Distance (km) Brightness Sun altitude
Rises 09:46:05 0° 237° (WSW) 2,596 9.1 21.8°
Reaches altitude 10° 09:49:06 10° 213° (SSW) 1,643 8.4 22.3°
Maximum altitude 09:51:14 15° 177° (S) 1,350 8.6 22.6°
Drops below altitude 10° 09:53:19 10° 142° (SE) 1,606 10.0 22.9°
Sets 09:56:13 0° 117° (ESE) 2,500 10.5 23.3°
